Theta_e
326 325 331 331 334 336 334 336 336 341 343 341 341 342 344 342 341 340 343 345 347 348 348 349 352 353 351 350 350 351 351 347 350
322 324 329 331 335 337 336 336 336 337 343 342 342 341 341 344 345 339 342 346 346 348 348 348 349 353 350 349 349 349 350 349 349
322 324 330 333 336 337 338 338 338 338 339 343 343 342 340 341 344 345 339 344 346 346 347 346 347 353 352 350 350 352 349 348 349
326 325 330 335 337 338 339 339 339 339 338 340 344 344 341 340 341 346 341 342 344 349 345 346 348 350 353 352 351 349 350 348 348
319 329 331 336 338 338 339 338 339 339 341 339 343 345 344 341 340 343 346 345 342 348 347 351 351 350 354 352 352 351 350 348 349
322 328 333 336 338 337 340 340 339 339 342 342 343 345 345 344 339 340 344 347 345 341 348 348 353 352 352 353 352 351 352 351 349
326 328 330 328 328 330 333 335 334 337 340 345 345 345 345 345 344 340 340 346 344 344 343 346 349 353 352 352 353 352 352 351 349
317 321 327 330 331 332 331 330 335 336 341 344 346 345 344 345 347 346 340 340 345 343 343 346 349 351 353 353 353 353 351 351 350
317 321 325 331 333 333 333 333 337 336 337 344 347 346 346 345 347 348 346 341 341 342 343 347 348 350 352 351 355 341 340 348 350
319 321 323 325 329 331 333 336 337 338 335 337 344 347 347 348 346 347 348 348 343 342 340 341 347 350 352 352 354 336 336 341 350
316 321 319 322 330 334 338 338 338 340 342 343 344 345 349 350 350 348 348 348 349 347 346 340 343 347 348 352 353 335 333 337 350
317 318 317 326 335 332 333 334 340 342 341 342 342 342 347 352 352 351 350 348 348 350 349 346 342 347 351 349 350 331 330 334 347
315 321 321 323 329 330 329 329 334 335 336 337 337 339 342 348 353 352 351 351 351 351 351 350 348 345 346 346 353 332 328 332 350
313 318 320 322 324 324 324 325 327 328 329 327 330 334 340 344 351 353 353 353 353 352 352 351 350 349 348 348 350 351 325 324 353
311 314 318 320 319 320 320 320 321 321 324 326 327 330 332 338 351 353 354 353 353 353 352 350 349 350 351 352 353 335 327 322 326
309 313 316 318 317 318 318 319 319 317 320 322 324 326 330 337 351 353 353 352 352 351 352 350 349 349 349 350 353 354 326 321 321
308 313 314 316 314 313 314 314 315 316 318 319 320 322 326 330 348 350 351 353 354 352 351 351 350 349 349 350 351 353 356 342 332
308 311 310 313 312 310 311 311 311 314 315 316 317 321 324 325 350 349 351 352 353 353 354 350 352 352 352 350 350 351 342 345 351
308 306 308 308 309 309 309 309 310 312 312 314 314 318 324 322 328 351 354 352 353 316 324 321 319 323 341 353 334 324 318 316 316
309 304 306 306 307 307 308 309 308 308 310 311 313 315 321 323 325 336 352 352 353 350 331 313 311 312 314 317 330 311 310 313 309
Wind_Speed
19 16 19 17 21 19 21 22 21 20 19 17 17 16 14 11 10 6 6 6 7 8 8 7 7 8 7 7 7 6 5 3 3
22 15 11 16 19 21 22 23 24 22 20 18 18 18 14 10 10 7 9 8 6 7 9 6 8 9 8 7 7 6 6 4 5
21 14 11 16 17 23 19 21 20 21 21 21 20 17 15 12 11 7 7 6 7 7 8 6 8 8 9 7 7 6 6 5 4
27 23 17 19 17 21 18 17 19 19 19 20 18 18 17 15 13 8 7 7 7 7 7 8 8 10 10 10 8 7 6 6 6
12 24 18 20 19 22 22 22 21 20 19 20 19 19 17 16 14 13 8 9 8 7 7 7 8 10 11 10 9 7 8 7 6
10 18 15 9 15 15 7 5 10 19 19 20 17 18 17 16 16 16 16 12 7 7 7 8 7 8 11 12 11 9 8 8 7
18 14 10 8 5 5 3 1 3 4 15 19 18 17 18 18 17 17 17 16 10 8 9 8 8 9 10 10 10 10 9 8 7
15 12 9 6 5 5 8 7 7 11 9 18 19 19 17 17 16 16 15 17 16 12 8 11 9 9 9 10 10 9 10 9 8
12 18 17 6 7 12 16 14 7 9 5 15 17 18 18 16 15 16 16 16 16 15 14 11 8 10 12 10 9 12 14 11 8
8 9 10 8 7 16 15 19 5 3 4 5 9 16 16 16 18 18 18 16 16 16 16 16 13 12 12 13 13 15 16 16 9
7 5 5 9 9 11 20 10 8 5 6 3 1 6 16 17 17 18 17 17 17 16 15 16 15 15 14 13 11 14 16 16 12
14 12 7 6 8 9 9 9 8 3 4 5 7 4 10 17 17 18 18 19 18 16 14 14 15 14 14 15 15 16 17 13 10
16 12 10 11 9 10 12 12 11 9 9 6 2 6 5 6 14 18 19 20 18 16 15 15 13 15 15 15 15 15 18 15 10
8 6 8 10 10 10 8 10 9 9 9 14 15 12 9 11 16 19 20 18 15 15 15 14 15 15 14 15 14 15 19 20 14
12 10 12 11 9 6 6 9 9 10 9 11 13 14 13 14 18 17 15 17 16 15 15 15 15 14 12 12 13 15 16 19 21
12 7 5 5 6 0 5 10 8 9 10 12 13 13 11 13 12 16 17 17 16 14 14 13 13 12 12 11 10 11 18 20 21
10 4 5 4 5 6 7 7 9 9 10 10 13 15 13 12 13 13 14 12 13 13 13 14 13 12 12 11 10 10 10 9 9
7 1 3 4 6 5 5 9 10 8 9 10 12 12 11 13 12 11 12 13 14 15 17 16 14 12 11 11 11 12 13 11 10
6 5 2 4 3 5 7 7 9 10 9 11 12 12 8 8 10 8 10 11 11 5 8 17 16 15 14 11 13 13 15 14 16
6 4 3 4 3 4 6 7 8 10 9 11 12 10 10 9 9 7 6 8 10 11 1 6 10 15 15 14 11 14 13 17 13
Wind_Direction
208 208 205 194 186 178 181 183 183 181 181 182 183 185 193 202 204 200 203 182 197 194 192 184 184 189 184 182 180 180 172 170 186
212 210 197 192 188 189 182 184 187 184 182 185 186 190 191 197 208 203 205 198 182 193 194 188 184 185 188 186 184 184 176 181 193
238 220 192 189 188 189 181 186 188 189 184 185 185 188 193 199 208 207 212 197 197 190 207 191 172 186 192 189 188 187 183 184 208
231 219 200 191 185 185 186 180 184 191 189 188 187 189 190 197 204 212 196 201 205 199 195 196 188 191 192 193 192 190 187 195 197
282 215 203 192 179 176 188 189 178 186 192 192 191 189 189 194 196 204 209 210 206 198 198 192 196 187 190 190 195 189 193 201 196
326 182 176 187 180 173 146 193 192 183 184 196 199 189 188 192 198 200 210 215 209 205 194 198 191 180 187 189 196 197 200 198 201
27 41 45 69 45 10 98 184 256 249 193 188 191 199 192 191 197 204 209 211 202 209 213 192 197 194 194 195 196 200 201 198 204
35 36 16 81 29 322 295 277 221 241 220 188 190 196 192 201 197 201 206 209 210 204 209 217 198 198 197 195 199 206 205 205 207
35 33 38 57 5 294 261 249 213 226 247 200 187 195 197 193 199 199 203 205 209 207 207 213 198 201 203 201 204 201 195 195 207
79 56 49 25 360 317 284 255 205 183 71 348 183 197 202 199 197 205 204 199 202 210 212 213 216 212 205 205 207 197 197 197 205
70 46 24 11 26 26 1 9 5 108 143 147 163 203 207 206 200 205 203 202 199 205 208 211 214 218 216 214 212 198 200 201 215
6 8 339 27 32 40 40 6 8 314 262 198 213 216 205 203 207 205 201 205 202 202 201 209 212 215 217 216 221 199 202 195 211
355 16 15 32 32 32 27 0 347 358 355 235 283 302 271 224 205 212 204 204 201 202 205 208 210 216 215 211 217 199 200 195 212
338 9 38 49 41 43 13 1 348 355 347 347 340 319 295 296 234 208 210 205 199 200 206 208 211 215 216 216 210 215 197 197 211
333 356 21 46 44 4 8 15 360 357 339 319 317 315 312 297 240 205 203 202 202 200 202 209 212 211 217 218 216 210 201 200 208
310 323 11 59 80 297 27 8 4 339 326 312 318 299 287 291 260 215 202 196 198 199 201 207 211 211 215 217 214 217 208 200 206
285 320 351 9 73 33 9 12 355 323 324 328 311 305 310 290 264 217 201 195 197 200 202 206 209 210 215 217 215 217 215 208 208
245 275 40 33 20 46 332 9 346 306 334 322 317 311 306 309 277 212 206 198 197 201 207 203 203 207 209 208 216 218 210 204 202
203 165 111 72 64 15 0 351 313 323 344 330 318 317 313 312 303 248 208 201 201 58 222 201 199 199 204 214 219 198 196 204 201
131 108 59 65 45 52 345 341 312 322 346 327 318 310 313 315 300 322 240 209 198 201 75 74 215 211 209 209 196 198 204 210 206